Terminal Aerodrome Forecast
Issued by NWS La Crosse, WI

Home | Current Version | Previous Version | Text Only | Print | Product List | Glossary On
Versions: 1 2 3 4 5 6 7 8 9 10 11 12 13 14 15 16 17 18 19 20 21 22 23 24 25 26 27 28 29 30 31 32 33 34 35 36 37 38 39 40 41 42
000
FTUS43 KARX 250201 AAA
TAFRST
TAF AMD
KRST 250201Z 2502/2524 12005KT P6SM BKN015
     FM250700 07011KT 4SM -SN BKN015
     FM250800 05010KT 3SM -SN OVC015
     FM250900 05012KT 1SM -SN OVC007
     FM251100 04014G22KT 2SM -SN OVC007
     FM251500 04012KT 6SM BR OVC010
     FM251900 01010KT P6SM SCT010=

USA.gov is the U.S. government's official web portal to all federal, state and local government web resources and services.